Location: Mizzole
(45.4833°N, 11.0500°E)
Time: 05:37:59
(UTC+00:00)

Cosmos 2082 Rocket - Pass Details

Date: 21 October 2019
Orbit: 832 x 855 km, 71.0° (Epoch: 16 November)

Event Time Altitude Azimuth Distance (km) Brightness Sun altitude
Rises 17:57:40 0° 333° (NNW) 3,432 5.8 -17.7°
Reaches altitude 10° 18:00:08 10° 332° (NNW) 2,490 5.0 -18.1°
Maximum altitude 18:05:52 82° 246° (WSW) 863 2.2 -19.1°
Drops below altitude 10° 18:11:31 10° 160° (SSE) 2,461 4.4 -20.1°
Enters shadow 18:12:02 - 159° (SSE) 2,652 4.5 -20.2°
